www.pogodaiklimat.ru

Погода и климат >> Архив погоды >> Мадагаскар >> Анцухихи


ПОГОДА в Анцухихи

  • Прогноз погоды в Анцухихи
  • Монитор погоды в Анцухихи

АРХИВ ПОГОДЫ в Анцухихи

Время (UTC), дата Ветер
(напр.,м/с)
 
Видим.   Явления Облачность Т
(С)
Тd
(С)
f
(%)
Тe
(С)
Тes
(С)
Комфортность P
(гПа)
Po
(гПа)
Тmin
(С)
Tmax
(С)
R
(мм)
R24
(мм)
S
(см)
03 16.03 ЮВ 2 30 км осадки на расстоянии 6/3 600 м
[Cb cap Ci sp]
+24.6 +23.4 93 +33 +33 очень
душно
1011.2 1008.5
06 16.03 Ю 3 30 км осадки на расстоянии 9/3 600 м
[Cb cap Ci sp]
+30.6 +24.0 68 +42 +48 опасность
перегрева
1013.0 1010.3 +26.4 +34.8
03 17.03 Ю 3 30 км осадки на расстоянии 9/9 600 м
[Cb cap]
+24.7 +23.4 92 +33 +33 очень
душно
1011.8 1009.1
06 17.03 Ю 3 30 км осадки на расстоянии 9/5 600 м
[Cb cap Ci sp]
+30.0 +25.0 75 +43 +47 опасность
перегрева
1013.2 1010.5 +26.2 +35.2
03 18.03 Ю 2 30 км осадки на расстоянии 9/5 600 м
[Cb cap Cs]
+24.6 +23.4 93 +33 +33 очень
душно
1012.0 1009.3
06 18.03 Ю 3 30 км 8/3 600 м
[Cb cap Ci sp]
+29.7 +24.2 72 +41 +47 опасность
перегрева
1013.0 1010.3 +25.4 +35.2
09 18.03 Ю 4 40 км 6/4 600 м
[Cb cap Ci sp]
+33.4 +24.0 58 +45 +53 опасность
перегрева
1011.6 1008.9
12 18.03 ЮЗ 5 40 км 6/3 600 м
[Cb cap Ci sp]
+34.8 +22.0 47 +43 +46 опасность
перегрева
1010.0 1007.3
15 18.03 Ю 3 40 км 6/1 600 м
[Cb cap Ci sp]
+30.5 +21.6 59 +39 +39 очень
душно
1010.6 1007.9 +34.8
03 19.03 штиль 0 15 км туман на расстоянии 8/5 90 м
[Cb cap Cs]
+25.4 +24.6 95 +36 +36 очень
душно
1012.2 1009.5
06 19.03 ЮВ 2 30 км осадки на расстоянии 8/5 600 м
[Cb cap Ci sp]
+29.5 +25.0 77 +43 +48 опасность
перегрева
1012.7 1010.0 +26.2 +34.8
09 19.03 Ю 4 40 км 6/4 600 м
[Cb cap Ci sp]
+33.8 +21.9 50 +42 +50 опасность
перегрева
1011.0 1008.3
12 19.03 ЮЗ 4 30 км осадки на расстоянии 8/5 600 м
[Cb cap Ci sp]
+35.0 +22.6 49 +45 +47 опасность
перегрева
1009.0 1006.3
15 19.03 Ю 3 30 км осадки на расстоянии 9/3 600 м
[Cb cap Ci sp]
+30.2 +23.4 67 +41 +41 опасность
перегрева
1009.5 1006.8 +35.0
03 20.03 ЮВ 3 30 км осадки на расстоянии 9/3 600 м
[Cb cap Cs]
+24.8 +24.4 98 +35 +35 очень
душно
1011.3 1008.6
06 20.03 Ю 3 40 км 6/3 600 м
[Cb cap Ci sp]
+29.2 +23.2 70 +39 +45 очень
душно
1012.0 1009.3 +25.2 +35.0
09 20.03 Ю 4 40 км 8/3 600 м
[Cb cap Ci sp]
+33.2 +22.6 54 +43 +51 опасность
перегрева
1010.4 1007.7
12 20.03 ЮЗ 4 30 км осадки на расстоянии 9/6 600 м
[Cb cap Ci sp]
+34.0 +23.4 54 +45 +47 опасность
перегрева
1008.4 1005.7
15 20.03 Ю 5 30 км гроза без осадков 9/9 600 м
[Cb cap]
+28.4 +24.0 77 +39 +39 очень
душно
1009.0 1006.3 +34.0
03 21.03 штиль 0 25 км туман на расстоянии 9/3 500 м
[Cb cap Cs]
+24.5 +23.0 91 +32 +32 очень
душно
1010.8 1008.1 3
06 21.03 Ю 3 40 км 8/5 600 м
[Cb cap Ci sp]
+29.0 +25.6 82 +43 +47 опасность
перегрева
1012.0 1009.3 +26.2 +35.0 3
09 21.03 Ю 4 30 км осадки на расстоянии 9/5 600 м
[Cb cap Ci sp]
+32.5 +24.4 62 +45 +50 опасность
перегрева
1010.6 1007.9
12 21.03 Ю 5 30 км осадки на расстоянии 9/3 600 м
[Cb cap Ci sp]
+33.8 +24.0 57 +46 +48 опасность
перегрева
1008.8 1006.1
15 21.03 Ю 4 30 км гроза без осадков 9/5 600 м
[Cu Sc Ci sp]
+29.6 +25.3 78 +43 +43 опасность
перегрева
1009.7 1007.0 +33.8
03 22.03 ЮВ 2 30 км 6/3 600 м
[Cb cap Cs]
+24.8 +23.4 92 +33 +33 очень
душно
1011.2 1008.5
06 22.03 Ю 3 40 км 8/3 600 м
[Cb cap Ci sp]
+29.8 +25.0 75 +43 +48 опасность
перегрева
1012.4 1009.7 +26.4 +33.5
09 22.03 ЮЗ 4 40 км 6/3 600 м
[Cb cap Ci sp]
+33.4 +24.6 60 +46 +55 опасность
перегрева
1011.0 1008.3
12 22.03 З 4 30 км осадки на расстоянии 9/4 600 м
[Cb cap Ci sp]
+35.4 +24.2 52 +47 +50 опасность
перегрева
1009.0 1006.3
15 22.03 Ю 5 30 км гроза без осадков 9/9 600 м
[Cb cap]
+28.2 +24.8 82 +40 +40 очень
душно
1010.0 1007.3 +35.4

 

Местоположение метеостанции Анцухихи (Мадагаскар): широта -14.88 долгота 47.98 высота над уровнем моря 23 м.

В архиве по умолчанию представлена погода в Анцухихи за последнюю неделю. Архивные данные за месяц целиком и за предыдущие месяцы, начиная с января 2011 года, Вы можете получить, выбрав интересующий диапазон дат из раскрывающегося списка и нажав кнопку "Ввод!".


*Определитесь, кто Вы:
робот инопланетянин человек

Внимание! Время в таблицах - всемирное. Для получения местного времени необходимо прибавить поправку, которая равна 3 ч.

Смотрите также архив погоды в соседних городах и на ближайших метеорологических станциях:

Погода в Аэропорту Fascene (Мадагаскар) (178 км)
Погода в Махадзанге (Мадагаскар) (195 км)
Погода в Анталахе (Мадагаскар) (244 км)
Погода в Самбаве (Мадагаскар) (245 км)
Погода в Амбоайтзилаозане (Мадагаскар) (311 км)
Погода на Нуси Бураха (Мадагаскар) (314 км)
Погода в Анциранане (Мадагаскар) (316 км)
Погода в Дзаудзи (Коморские Острова) (372 км)
Погода на Острове Глорьёз (Реюньон) (385 км)
Погода в Туамасине (Мадагаскар) (390 км)

Пояснения к столбцам:

Ветер - указаны скорость ветра в м/с - средняя за 10 мин, порывы в срок и между сроками (в фигурных скобках) и направление, откуда дует ветер: С - северный, СВ - северо-восточный, В - восточный, ЮВ - юго-восточный, Ю - южный, ЮЗ - юго-западный, З - западный, СЗ - северо-западный.
Видимость - горизонтальная дальность видимости в метрах или километрах. При видимости от 1 до 10 км при отсутствии осадков обычно наблюдается дымка, при ухудшении видимости до 1 км и менее - туман. В сухую погоду видимость может ухудшаться дымом, пылью или мглою.
Явления - указаны атмосферные явления, наблюдавшиеся в срок или в последний час перед сроком; фигурными скобками обозначены явления, наблюдавшиеся между сроками (за 1-3 часа до срока); квадратными скобками обозначены град или гололедные отложения с указанием их диаметра в мм.
Облачность - указаны через наклонную черту общая и нижняя облачность в баллах и высота нижней границы облаков в метрах; квадратными скобками обозначены формы облаков: Ci - перистые, Cs - перисто-слоистые, Cc - перисто-кучевые, Ac - высококучевые, As - высокослоистые, Sc - слоисто-кучевые, Ns - слоисто-дождевые, Cu - кучевые, Cb - кучево-дождевые. Подробнее классификацию облаков см. в Атласе облаков (PDF).
T - Температура воздуха - температура, измеренная на высоте 2 м над землей.
Td - Температура точки росы - температура, при понижении до которой содержащийся в воздухе водяной пар достигнет насыщения.
f - Относительная влажность воздуха - влажноcть воздуха, измеренная на высоте 2 м над землей.
Te - Эффективная температура - температура, которую ощущает одетый по сезону человек в тени. Характеристика душности погоды. При расчете учитывается влияние влажности воздуха и скорости ветра на теплоощущения человека.
Tes - Эффективная температура на солнце - температура, которую ощущает человек, с поправкой на солнечный нагрев. Характеристика знойности погоды. Зависит от высоты солнца над горизонтом, облачности и скорости ветра. Ночью, в пасмурную погоду, а также при ветре 12 м/с и более поправка равна нулю.
P - Атмосферное давление - приведенное к уровню моря атмосферное давление.
Po - Атмосферное давление - измеренное на уровне метеостанции атмосферное давление.
Tmin - Минимальная температура - минимум температуры воздуха на высоте 2 м над землей.
Tmax - Максимальная температура - максимум температуры воздуха на высоте 2 м над землей.
R - Количество осадков - Количество выпавших осадков за период времени, мм. При наведении курсора мыши на число - период времени, за который выпало указанное количество осадков.
R24 - Количество осадков - Количество выпавших осадков за 24 часа, мм.
S - Снежный покров - Высота снежного покрова, см. При наведении курсора мыши на число - состояние снежного покрова и степень покрытия местности в баллах.